Frenchville, ME

10:51 PM EDT on October 23, 2017 (GMT -0400)
Northern Aroostook Regional

Weather History for KFVE - April, 2013

Change the Weather History Date:

Tuesday, April 2, 2013

  Actual Average Record
Temperature  
Mean Temperature 20 °F 30 °F  
Max Temperature 28 °F 38 °F 50 °F (2009)
Min Temperature 12 °F 22 °F 9 °F (2003)
Degree Days  
Heating Degree Days 45    
Month to date heating degree days 78  
Since 1 July heating degree days 7701  
Cooling Degree Days 0    
Month to date cooling degree days 0  
Year to date cooling degree days 0  
Moisture  
Dew Point 10 °F    
Average Humidity 66    
Maximum Humidity 75    
Minimum Humidity 46    
Precipitation  
Precipitation T in 0.09 in 0.61 in (2005)
Month to date precipitation 0.11 0.17  
Year to date precipitation 3.27 4.22  
Sea Level Pressure  
Sea Level Pressure 29.52 in    
Wind  
Wind Speed 15 mph (WSW)    
Max Wind Speed 26 mph    
Max Gust Speed 39 mph    
Visibility 8 miles    
Events Snow    
T = Trace of Precipitation, MM = Missing Value Source: NWS Daily Summary

Daily Weather History Graph

Daily Weather History Graph

Search for Another Location

Airport or City:

Trip Planner

Search our weather history database for the weather conditions in past years. The results will help you decide how hot, cold, wet, or windy it might be!

Date:

Astronomy

Apr. 02, 2013 Rise Set
Actual Time 6:09 AM EDT 7:04 PM EDT
Civil Twilight 5:38 AM EDT 7:35 PM EDT
Nautical Twilight 5:01 AM EDT 8:12 PM EDT
Astronomical Twilight 4:22 AM EDT 8:52 PM EDT
Moon 1:22 AM EDT (4/2) 10:40 AM EDT (4/2)
Length of Visible Light 13h 56m
Length of Day
12h 54m
Waning Gibbous, 56% of the Moon is Illuminated
Apr 2
Waning Gibbous
Apr 3
Last Quarter
Apr 10
New
Apr 18
First Quarter
Apr 25
Full

Hourly Weather History & Observations

Time (EDT) Temp. Windchill Dew Point Humidity Pressure Visibility Wind Dir Wind Speed Gust Speed Precip Events Conditions
12:53 AM 28.0 °F 16.5 °F 19.9 °F 72% 29.45 in 10.0 mi WSW 15.0 mph 28.8 mph N/A   Overcast
1:19 AM 26.6 °F 15.2 °F 19.4 °F 74% 29.42 in 10.0 mi West 13.8 mph 21.9 mph N/A   Overcast
1:53 AM 27.0 °F 16.1 °F 19.9 °F 75% 29.45 in 10.0 mi West 12.7 mph 18.4 mph N/A   Overcast
2:15 AM 26.6 °F 15.7 °F 19.4 °F 74% 29.42 in 10.0 mi WSW 12.7 mph 20.7 mph N/A   Scattered Clouds
2:51 AM 24.8 °F 12.4 °F 17.6 °F 74% 29.43 in 10.0 mi West 15.0 mph 21.9 mph N/A   Mostly Cloudy
3:53 AM 24.1 °F 12.0 °F 14.0 °F 65% 29.47 in 10.0 mi WSW 13.8 mph 39.1 mph N/A   Clear
4:53 AM 19.9 °F 5.7 °F 9.0 °F 62% 29.49 in 10.0 mi WSW 16.1 mph - N/A   Clear
5:53 AM 19.0 °F 5.6 °F 8.1 °F 62% 29.52 in 10.0 mi West 13.8 mph 25.3 mph N/A   Overcast
6:21 AM 17.6 °F 6.4 °F 8.6 °F 68% 29.50 in 10.0 mi West 9.2 mph 20.7 mph N/A   Overcast
6:53 AM 18.0 °F 4.8 °F 9.0 °F 68% 29.54 in 10.0 mi West 12.7 mph 20.7 mph N/A   Overcast
7:23 AM 17.6 °F 4.3 °F 10.4 °F 73% 29.51 in 2.5 mi WSW 12.7 mph 26.5 mph 0.00 in Snow Light Snow
7:44 AM 17.6 °F 2.2 °F 8.6 °F 68% 29.50 in 6.0 mi WSW 17.3 mph 24.2 mph 0.00 in Snow Light Snow
7:53 AM 18.0 °F 4.8 °F 9.0 °F 68% 29.54 in 7.0 mi West 12.7 mph 25.3 mph 0.00 in Snow Light Snow
8:15 AM 17.6 °F 2.7 °F 8.6 °F 68% 29.51 in 10.0 mi WSW 16.1 mph 24.2 mph 0.00 in   Overcast
8:53 AM 19.0 °F 4.5 °F 7.0 °F 59% 29.54 in 10.0 mi West 16.1 mph 25.3 mph 0.00 in   Overcast
9:53 AM 19.9 °F 5.2 °F 6.1 °F 55% 29.54 in 10.0 mi West 17.3 mph 29.9 mph 0.00 in   Overcast
10:53 AM 19.9 °F 4.3 °F 5.0 °F 52% 29.54 in 10.0 mi WSW 19.6 mph 32.2 mph N/A   Overcast
11:53 AM 19.9 °F 6.2 °F 3.9 °F 50% 29.54 in 10.0 mi WSW 15.0 mph 32.2 mph N/A   Overcast
12:53 PM 21.0 °F 5.4 °F 6.1 °F 53% 29.54 in 10.0 mi SW 20.7 mph 31.1 mph N/A   Overcast
1:53 PM 23.0 °F 8.0 °F 5.0 °F 46% 29.53 in 10.0 mi WSW 20.7 mph 27.6 mph N/A   Overcast
2:53 PM 21.9 °F 6.9 °F 6.1 °F 51% 29.53 in 10.0 mi WSW 19.6 mph 29.9 mph N/A   Overcast
3:50 PM 19.4 °F 4.5 °F 10.4 °F 68% 29.50 in 1.8 mi West 17.3 mph 27.6 mph 0.00 in Snow Light Snow
3:53 PM 19.0 °F 4.0 °F 12.0 °F 74% 29.55 in 1.8 mi West 17.3 mph - 0.00 in Snow Light Snow
3:57 PM 19.4 °F 6.6 °F 12.2 °F 74% 29.50 in 0.8 mi West 12.7 mph 25.3 mph 0.00 in Snow Light Snow
4:06 PM 19.4 °F 7.2 °F 12.2 °F 74% 29.50 in 2.0 mi West 11.5 mph - 0.00 in Snow Light Snow
4:13 PM 19.4 °F 3.2 °F 10.4 °F 68% 29.50 in 6.0 mi West 20.7 mph 28.8 mph 0.00 in   Haze
4:29 PM 21.2 °F 4.9 °F 8.6 °F 58% 29.50 in 9.0 mi West 23.0 mph 29.9 mph 0.00 in   Overcast
4:53 PM 19.9 °F 4.8 °F 6.1 °F 55% 29.55 in 8.0 mi WSW 18.4 mph 27.6 mph 0.00 in Snow Light Snow
5:53 PM 19.9 °F 4.8 °F 7.0 °F 57% 29.57 in 9.0 mi WSW 18.4 mph 26.5 mph 0.00 in   Overcast
6:35 PM 17.6 °F 1.7 °F 10.4 °F 73% 29.54 in 1.5 mi WSW 18.4 mph 26.5 mph 0.00 in Snow Light Snow
6:37 PM 17.6 °F 0.9 °F 10.4 °F 73% 29.54 in 0.8 mi WSW 20.7 mph 26.5 mph 0.00 in Snow Light Snow
6:49 PM 17.6 °F 2.2 °F 10.4 °F 73% 29.54 in 2.0 mi WSW 17.3 mph 28.8 mph 0.00 in Snow Light Snow
6:53 PM 17.1 °F 1.0 °F 10.0 °F 74% 29.59 in 9.0 mi WSW 18.4 mph 28.8 mph 0.00 in   Overcast
7:03 PM 17.6 °F 1.3 °F 8.6 °F 68% 29.54 in 10.0 mi West 19.6 mph 27.6 mph N/A   Overcast
7:53 PM 17.1 °F 2.5 °F 8.1 °F 68% 29.59 in 9.0 mi West 15.0 mph 20.7 mph N/A   Overcast
8:53 PM 16.0 °F 8.8 °F 8.1 °F 71% 29.60 in 10.0 mi SW 4.6 mph - 0.00 in   Overcast
9:53 PM 15.1 °F 6.4 °F 7.0 °F 70% 29.60 in 10.0 mi WSW 5.8 mph - N/A   Partly Cloudy
10:53 PM 14.0 °F 2.0 °F 5.0 °F 67% 29.59 in 10.0 mi WSW 9.2 mph - N/A   Mostly Cloudy
11:53 PM 12.9 °F -2.2 °F 1.9 °F 62% 29.58 in 10.0 mi West 13.8 mph - N/A   Scattered Clouds